Temperature
-3 -3 -4 -4 -4 -4 -4 -4 -4 -4 -4 -4 -4 -4 -3 -3 -3 -3 -3 -3 -3 -3 -2 -2 -2 -2 -2 -2 -2 -1 -1 -1 -1 -1 -0 -0 0 0 1 1 1 2 2
-4 -4 -4 -4 -4 -4 -4 -4 -4 -4 -4 -4 -4 -4 -4 -4 -4 -4 -4 -4 -4 -3 -3 -3 -3 -3 -2 -2 -2 -2 -2 -2 -2 -1 -1 -1 -0 -0 -0 0 0 1 1
-4 -4 -5 -5 -5 -5 -5 -5 -5 -5 -5 -5 -5 -5 -5 -5 -4 -4 -4 -4 -4 -4 -4 -4 -3 -3 -3 -3 -2 -2 -2 -2 -2 -2 -1 -1 -1 -1 -1 -0 -0 -0 0
-5 -5 -5 -5 -5 -5 -6 -5 -5 -5 -5 -5 -5 -5 -5 -5 -5 -5 -5 -5 -5 -4 -4 -4 -4 -4 -4 -3 -3 -3 -3 -3 -3 -2 -2 -2 -1 -1 -1 -1 -1 -1 -0
-5 -5 -6 -6 -6 -6 -6 -6 -6 -6 -6 -6 -6 -6 -6 -6 -6 -6 -6 -5 -5 -5 -5 -5 -4 -4 -4 -4 -4 -3 -3 -3 -3 -3 -3 -2 -2 -2 -2 -2 -2 -1 -1
-6 -6 -6 -6 -6 -7 -6 -6 -6 -6 -6 -6 -6 -6 -6 -6 -6 -6 -6 -6 -6 -6 -5 -5 -5 -5 -4 -4 -4 -4 -3 -3 -3 -3 -3 -3 -2 -2 -2 -2 -2 -2 -2
-6 -6 -7 -7 -7 -7 -7 -7 -7 -7 -7 -7 -7 -6 -6 -6 -6 -6 -6 -6 -6 -6 -6 -6 -5 -5 -5 -5 -4 -4 -4 -3 -3 -3 -3 -3 -3 -2 -2 -2 -2 -2 -2
-7 -7 -7 -7 -7 -7 -7 -7 -7 -7 -8 -7 -7 -7 -7 -7 -7 -7 -7 -7 -7 -6 -6 -6 -6 -5 -5 -5 -5 -4 -4 -4 -3 -3 -3 -3 -3 -3 -3 -2 -2 -2 -2
-7 -7 -7 -8 -8 -8 -8 -8 -8 -8 -8 -8 -8 -8 -7 -7 -7 -8 -8 -7 -7 -7 -7 -6 -6 -6 -5 -5 -5 -5 -4 -4 -4 -4 -3 -3 -3 -3 -3 -3 -3 -3 -3
-8 -8 -8 -8 -8 -8 -8 -8 -8 -8 -8 -8 -8 -8 -8 -8 -8 -8 -8 -8 -8 -7 -7 -7 -6 -6 -6 -5 -5 -5 -4 -4 -4 -4 -4 -4 -4 -4 -3 -3 -3 -3 -3
-8 -8 -8 -9 -9 -9 -9 -9 -9 -9 -9 -9 -9 -9 -9 -9 -9 -9 -9 -9 -9 -8 -8 -7 -7 -6 -6 -6 -5 -5 -5 -4 -4 -4 -4 -4 -4 -4 -4 -4 -3 -3 -3
-9 -9 -9 -9 -9 -9 -9 -9 -9 -9 -9 -9 -9 -9 -9 -9 -9 -9 -9 -9 -9 -9 -8 -8 -7 -7 -6 -6 -6 -5 -5 -5 -5 -5 -5 -4 -4 -4 -4 -4 -4 -4 -4
-9 -9 -9 -9 -9 -10 -10 -10 -10 -10 -10 -10 -10 -10 -10 -10 -10 -10 -10 -9 -9 -9 -9 -8 -8 -7 -7 -6 -6 -6 -6 -6 -5 -5 -5 -5 -5 -5 -4 -4 -4 -4 -4
-10 -10 -10 -10 -10 -10 -10 -10 -10 -10 -10 -11 -11 -11 -11 -11 -11 -10 -10 -10 -9 -9 -9 -8 -8 -7 -7 -7 -6 -6 -6 -6 -6 -6 -6 -6 -5 -5 -5 -5 -5 -5 -5
-10 -10 -10 -11 -11 -11 -11 -11 -11 -11 -11 -11 -11 -11 -11 -11 -11 -11 -10 -10 -10 -10 -9 -9 -8 -8 -8 -7 -7 -7 -7 -7 -6 -6 -6 -6 -6 -6 -6 -5 -5 -5 -5
-11 -11 -11 -11 -11 -11 -11 -11 -11 -11 -11 -11 -11 -12 -11 -11 -11 -11 -11 -10 -10 -10 -10 -9 -9 -9 -8 -8 -8 -8 -7 -7 -7 -7 -7 -7 -7 -6 -6 -6 -6 -6 -6
-12 -12 -12 -12 -12 -12 -12 -12 -12 -11 -11 -11 -12 -12 -11 -11 -11 -11 -11 -11 -10 -10 -10 -10 -10 -10 -9 -9 -9 -9 -8 -8 -8 -8 -8 -7 -7 -7 -7 -6 -6 -6 -6
-12 -12 -12 -12 -12 -13 -13 -13 -13 -12 -12 -12 -12 -12 -12 -12 -11 -11 -11 -11 -10 -10 -11 -11 -11 -10 -10 -10 -10 -9 -9 -9 -8 -8 -8 -8 -8 -8 -7 -7 -7 -6 -6
-12 -13 -13 -13 -13 -13 -13 -13 -13 -13 -13 -13 -12 -12 -12 -12 -12 -11 -11 -11 -11 -11 -11 -11 -11 -11 -11 -10 -10 -10 -9 -9 -9 -9 -9 -8 -8 -8 -8 -7 -7 -7 -6
-13 -13 -13 -13 -13 -13 -13 -13 -13 -13 -13 -13 -13 -13 -13 -13 -12 -12 -12 -12 -12 -12 -12 -12 -11 -11 -11 -11 -10 -10 -10 -10 -9 -9 -9 -9 -9 -8 -8 -8 -7 -7 -7
-13 -13 -13 -14 -14 -14 -14 -14 -14 -14 -14 -14 -14 -13 -14 -13 -13 -13 -13 -13 -12 -12 -12 -12 -12 -11 -11 -11 -11 -10 -10 -10 -10 -10 -9 -9 -9 -9 -8 -8 -8 -7 -7
-14 -14 -14 -14 -14 -14 -14 -14 -14 -14 -14 -14 -14 -14 -14 -13 -13 -13 -13 -13 -13 -13 -12 -12 -12 -12 -11 -11 -11 -11 -10 -10 -10 -10 -10 -9 -9 -9 -9 -8 -8 -8 -8
-14 -14 -14 -14 -14 -14 -14 -14 -15 -15 -15 -15 -14 -14 -14 -14 -14 -14 -13 -13 -13 -13 -13 -13 -12 -12 -12 -11 -11 -11 -10 -10 -10 -10 -10 -10 -9 -9 -9 -9 -8 -8 -8
-14 -14 -14 -14 -15 -15 -15 -15 -15 -15 -15 -15 -15 -15 -15 -14 -14 -14 -13 -13 -13 -13 -13 -13 -12 -12 -12 -12 -11 -11 -11 -10 -10 -10 -10 -10 -9 -9 -9 -9 -9 -8 -8
-15 -15 -15 -15 -15 -15 -15 -15 -15 -15 -15 -15 -15 -15 -15 -15 -14 -14 -14 -13 -13 -13 -13 -13 -12 -12 -12 -12 -11 -11 -11 -10 -10 -10 -10 -10 -9 -9 -9 -9 -9 -9 -9
-15 -15 -15 -15 -15 -15 -15 -15 -15 -15 -15 -15 -15 -15 -15 -15 -15 -14 -14 -14 -14 -13 -13 -13 -12 -12 -12 -12 -11 -11 -11 -11 -10 -10 -10 -10 -10 -9 -9 -9 -9 -9 -9
Wind_Speed
4 4 4 4 5 5 5 5 6 7 7 7 7 7 7 7 7 6 6 6 7 7 7 8 9 8 6 6 6 6 6 6 8 7 5 5 5 6 7 9 10 9 9
4 4 5 5 5 5 6 6 6 7 7 8 7 7 7 8 7 7 8 8 8 8 8 8 9 8 8 7 7 7 7 7 7 9 6 5 6 6 6 6 7 8 8
4 4 5 5 5 6 6 7 7 7 8 8 7 7 7 8 8 8 8 8 9 9 9 9 10 9 10 8 8 8 8 7 6 7 7 5 5 5 5 6 6 5 7
4 4 5 6 6 6 7 7 7 7 7 7 8 8 8 9 9 9 9 9 9 10 10 10 10 9 10 9 9 9 8 7 7 7 6 6 5 4 4 5 5 5 5
4 5 6 6 6 6 7 7 7 7 8 8 8 8 8 8 8 9 10 10 10 9 9 9 10 11 13 11 10 9 8 8 7 7 7 6 5 4 5 5 6 5 5
5 6 7 6 7 7 7 7 7 7 7 8 8 8 9 8 13 16 13 9 9 10 10 10 10 11 13 15 16 14 13 11 9 9 8 8 8 7 5 6 5 5 6
6 6 6 6 7 8 8 7 8 7 8 8 8 8 9 11 16 16 16 10 9 9 10 10 10 10 12 10 13 14 15 16 15 12 11 11 9 8 7 8 8 7 7
6 7 7 7 8 8 8 8 8 7 8 8 9 9 9 11 16 16 16 10 9 9 9 10 10 10 10 12 11 11 12 11 13 11 11 11 10 9 10 10 9 7 6
7 7 7 7 8 8 8 8 8 7 8 8 9 8 9 11 15 16 15 8 8 10 10 10 10 10 14 16 11 10 11 10 12 15 15 14 15 14 11 6 6 6 7
7 8 8 8 8 9 9 8 7 7 8 9 9 8 8 9 14 16 15 7 8 8 8 9 13 13 15 14 9 9 10 9 7 8 9 9 8 9 11 9 8 7 6
8 8 8 8 8 8 8 7 7 7 7 7 9 8 8 10 13 15 15 8 7 8 8 7 8 13 15 15 12 9 11 9 6 6 6 6 6 6 6 7 7 8 8
8 8 8 8 7 7 7 7 7 6 7 7 7 8 7 8 11 13 15 14 12 8 8 7 8 14 15 15 11 10 12 9 5 5 5 5 5 5 5 6 7 7 8
8 8 8 8 7 7 7 8 7 5 5 6 6 7 8 7 8 14 15 15 15 9 8 12 13 15 13 10 11 11 8 5 4 5 5 5 4 5 4 4 4 4 4
8 8 8 7 7 6 6 6 6 5 5 6 6 7 8 7 7 7 7 9 11 10 8 10 13 13 9 8 8 6 4 4 4 5 5 4 3 4 4 4 4 3 3
7 7 7 7 7 6 6 5 7 6 7 8 7 7 8 8 10 14 11 8 7 7 7 5 5 5 4 4 4 4 4 4 4 4 4 4 4 4 4 3 3 3 4
7 7 6 6 6 6 6 7 10 10 13 13 13 12 10 12 16 16 16 15 14 12 7 4 5 5 5 5 5 5 4 4 4 4 3 3 4 5 5 4 4 4 4
7 7 6 6 6 6 6 7 9 10 12 12 13 15 14 15 15 15 15 14 12 9 5 4 5 5 5 5 5 5 5 5 4 4 4 4 4 5 4 4 4 4 4
6 8 7 5 6 6 6 7 7 8 9 8 10 14 15 15 14 14 13 10 7 6 4 4 5 5 5 5 5 5 5 5 4 4 4 4 4 5 4 4 4 5 4
6 5 6 6 6 6 6 7 7 8 8 8 8 10 14 14 13 12 10 5 5 5 5 5 5 5 5 5 5 5 5 5 5 5 5 5 5 5 5 5 4 5 4
6 10 9 6 6 6 6 6 7 7 7 7 8 8 9 9 7 7 6 5 5 5 5 5 6 6 5 5 5 5 5 5 5 5 5 5 5 5 5 4 4 3 3
6 7 11 8 6 6 6 6 7 7 7 7 7 10 13 8 6 6 6 6 6 6 6 6 6 6 6 5 5 5 6 5 5 5 5 5 5 4 4 3 3 2 2
5 5 6 6 6 6 7 6 6 7 7 8 8 10 14 8 6 6 6 6 6 6 6 6 6 6 5 5 6 6 6 6 6 5 5 5 5 4 4 3 2 2 3
5 6 6 6 6 8 8 6 6 7 7 7 8 8 8 7 7 7 7 7 6 6 7 6 6 6 7 7 7 6 6 7 6 6 6 5 5 4 3 3 3 3 3
5 6 6 6 6 6 6 7 7 7 7 7 7 7 7 7 7 8 7 7 7 7 7 7 7 8 10 9 8 8 9 9 8 7 7 5 4 4 3 3 3 3 3
4 5 6 6 6 6 6 7 7 7 7 8 7 7 7 7 7 7 7 7 8 8 9 9 8 8 10 11 11 11 12 13 12 8 5 4 4 3 3 3 2 2 3
5 5 5 5 5 6 6 7 7 7 7 7 7 7 7 7 7 8 7 7 7 8 8 9 9 11 12 11 13 14 14 13 12 10 5 3 2 2 2 2 2 2 2
Wind_Direction
299 302 304 303 305 305 300 299 301 303 307 305 306 306 305 303 301 295 291 289 283 282 275 267 266 266 260 255 251 247 252 255 262 271 270 272 261 263 273 272 271 267 266
295 298 299 302 305 303 300 301 302 300 302 301 302 300 299 299 295 289 290 290 283 280 278 272 268 268 260 257 250 246 248 250 256 268 271 267 265 255 254 258 267 265 264
299 300 302 303 301 300 298 300 301 300 299 302 299 294 294 294 293 288 282 282 278 275 271 268 268 270 267 262 255 250 251 254 254 260 266 268 272 266 264 270 265 263 265
301 298 296 295 293 292 293 297 298 297 296 296 294 290 291 292 293 289 284 280 276 274 271 268 265 259 264 263 262 252 251 252 254 254 260 265 265 260 249 259 270 264 268
300 297 292 294 293 293 293 293 294 296 297 295 296 292 292 290 289 291 288 283 279 275 272 268 268 265 267 265 263 255 250 248 250 252 256 262 258 249 247 254 262 271 267
293 291 294 297 297 295 293 294 296 296 296 294 294 292 293 294 298 300 298 286 280 275 275 274 273 270 269 273 272 267 260 251 249 248 251 250 250 247 248 250 256 265 268
290 292 296 298 298 296 297 298 297 296 294 292 292 288 285 289 299 302 301 292 280 274 272 272 275 275 275 274 273 271 264 259 254 250 249 248 246 239 237 244 244 252 258
291 294 298 299 298 299 297 294 293 292 290 289 291 288 288 292 301 303 303 296 282 275 269 267 268 271 266 272 267 264 261 255 252 248 245 246 245 243 234 238 243 253 268
296 299 301 299 298 298 296 295 293 292 291 289 290 287 287 293 300 303 303 294 285 279 275 272 271 270 274 277 271 267 269 265 263 259 258 256 255 253 249 245 238 239 258
301 301 300 299 298 296 293 293 294 291 290 293 293 289 286 289 297 301 303 293 290 288 283 278 278 279 280 280 269 265 267 269 267 268 268 265 260 252 247 236 230 232 249
304 303 302 300 298 294 294 296 294 293 295 293 293 292 287 290 297 300 301 297 291 291 291 289 285 290 291 287 281 269 268 274 266 261 260 262 255 248 240 236 232 228 234
308 306 303 302 301 304 302 303 302 296 296 295 295 297 293 292 297 299 300 299 300 291 288 288 290 296 296 293 287 282 283 283 267 258 256 255 253 248 245 241 241 237 242
311 307 306 307 306 306 304 304 306 302 295 296 296 298 302 300 299 302 303 303 302 298 291 294 298 301 300 295 293 295 292 278 264 262 260 259 254 249 247 247 250 250 257
308 308 309 310 309 306 304 303 304 299 297 297 295 298 300 301 300 299 296 298 300 300 301 303 306 307 306 303 302 298 290 276 269 261 265 265 265 259 251 247 250 247 257
308 305 308 308 304 306 305 298 298 286 288 295 295 292 297 298 300 307 307 302 301 297 304 304 307 309 308 307 304 299 293 288 286 276 269 269 271 269 265 258 249 241 243
310 310 308 307 307 308 309 311 308 306 305 304 304 303 297 299 305 308 309 311 312 314 313 305 306 303 301 300 299 299 298 292 289 290 284 275 273 270 266 262 244 235 238
301 304 304 307 310 312 312 313 315 318 315 311 311 313 311 309 310 312 312 316 319 320 313 305 302 301 300 299 296 294 296 296 293 289 284 281 276 273 266 260 247 237 238
300 303 307 302 306 307 309 309 310 313 318 318 319 320 321 322 321 322 324 328 325 326 313 303 299 299 299 298 296 295 296 298 295 290 285 284 281 275 269 260 247 238 237
306 305 303 302 303 305 309 310 311 311 312 314 318 320 323 323 324 325 330 329 316 312 310 305 301 299 299 297 296 293 290 290 292 292 288 284 281 278 271 263 253 248 244
303 308 314 308 307 309 311 311 311 312 312 313 315 318 321 321 319 322 325 320 312 308 306 303 302 299 298 297 297 295 292 291 292 289 287 285 282 277 272 268 261 247 235
301 306 314 313 308 308 307 307 307 307 309 310 311 314 319 317 314 314 315 313 309 306 304 303 302 301 298 295 294 292 289 288 288 287 287 286 285 285 281 270 263 249 219
303 304 306 306 306 308 305 304 308 309 311 312 312 316 322 323 317 313 310 307 304 301 300 298 297 295 293 292 292 290 288 286 286 286 287 287 286 284 281 272 264 238 204
305 306 308 309 309 313 318 316 312 310 309 310 312 314 317 318 315 312 310 309 308 305 301 297 295 294 292 290 285 278 278 280 281 281 282 283 280 277 273 265 251 228 214
304 307 309 310 311 310 310 311 310 309 309 310 310 311 313 312 312 312 312 310 309 306 304 301 295 292 292 293 291 286 280 280 281 277 271 267 268 269 264 255 238 219 212
310 310 308 307 308 308 308 309 309 310 311 311 311 311 312 312 313 313 313 312 310 308 306 304 300 298 296 295 293 291 292 292 292 286 271 261 261 260 252 240 223 209 203
312 309 307 305 304 305 306 307 309 313 313 313 313 313 312 311 311 311 312 312 312 310 308 306 303 302 300 300 299 299 300 299 297 296 286 258 258 260 247 227 203 190 183
Height
1510 1509 1507 1505 1503 1501 1499 1498 1496 1494 1492 1490 1488 1486 1485 1484 1483 1481 1480 1479 1478 1477 1477 1477 1477 1477 1477 1477 1477 1478 1478 1477 1474 1472 1474 1474 1475 1475 1476 1476 1476 1476 1476
1507 1505 1503 1501 1499 1497 1495 1494 1492 1490 1487 1485 1483 1482 1480 1479 1477 1476 1474 1473 1472 1470 1470 1470 1470 1470 1470 1470 1470 1470 1470 1470 1470 1467 1467 1468 1468 1469 1469 1470 1470 1470 1470
1503 1501 1499 1497 1495 1493 1491 1489 1487 1485 1483 1481 1479 1477 1475 1473 1471 1469 1468 1466 1465 1464 1464 1463 1463 1462 1462 1463 1463 1462 1463 1463 1463 1462 1461 1462 1462 1463 1463 1463 1463 1463 1464
1499 1497 1495 1493 1491 1488 1486 1484 1482 1480 1477 1475 1473 1472 1469 1467 1465 1463 1461 1460 1458 1457 1457 1456 1456 1456 1455 1455 1455 1455 1456 1456 1456 1456 1455 1455 1456 1456 1457 1457 1456 1457 1457
1494 1492 1490 1488 1486 1484 1481 1479 1477 1475 1472 1470 1468 1465 1463 1461 1459 1457 1455 1452 1451 1450 1450 1449 1449 1449 1448 1449 1449 1449 1449 1449 1449 1449 1449 1449 1449 1450 1450 1450 1450 1450 1450
1490 1488 1486 1484 1481 1479 1476 1474 1471 1469 1467 1464 1462 1459 1457 1455 1453 1451 1448 1446 1444 1443 1442 1442 1442 1442 1442 1442 1442 1442 1443 1443 1442 1443 1442 1442 1442 1443 1444 1445 1445 1445 1443
1486 1483 1481 1479 1476 1473 1471 1468 1466 1463 1461 1458 1456 1453 1451 1449 1447 1444 1442 1440 1438 1437 1436 1435 1435 1435 1435 1434 1434 1434 1435 1435 1436 1436 1435 1434 1435 1436 1438 1438 1438 1438 1437
1481 1479 1476 1474 1471 1468 1466 1463 1460 1457 1455 1452 1450 1447 1445 1443 1441 1439 1437 1435 1432 1431 1430 1429 1429 1428 1428 1427 1427 1426 1426 1426 1427 1427 1427 1427 1429 1430 1431 1432 1432 1432 1432
1476 1474 1471 1468 1465 1463 1460 1457 1454 1451 1449 1447 1444 1442 1439 1437 1435 1433 1432 1429 1426 1425 1424 1423 1422 1421 1421 1421 1421 1420 1419 1418 1419 1420 1420 1421 1421 1423 1424 1425 1425 1426 1424
1472 1469 1466 1464 1461 1458 1455 1452 1449 1446 1444 1441 1439 1436 1434 1431 1430 1428 1427 1424 1421 1419 1418 1417 1416 1415 1415 1415 1414 1413 1412 1411 1411 1411 1412 1413 1413 1414 1416 1418 1418 1419 1418
1467 1465 1462 1459 1456 1453 1450 1447 1444 1442 1439 1436 1434 1431 1429 1427 1424 1423 1422 1420 1417 1415 1412 1411 1409 1409 1409 1408 1408 1407 1406 1405 1405 1405 1405 1405 1406 1407 1408 1409 1411 1412 1412
1463 1460 1457 1455 1452 1449 1445 1442 1440 1437 1434 1431 1428 1426 1424 1422 1420 1417 1416 1415 1413 1411 1408 1406 1404 1403 1403 1402 1401 1401 1400 1400 1399 1398 1398 1398 1399 1399 1401 1402 1403 1404 1405
1459 1456 1453 1450 1447 1444 1441 1438 1435 1433 1430 1427 1424 1421 1418 1417 1415 1413 1411 1410 1408 1406 1403 1401 1400 1398 1397 1396 1395 1395 1394 1393 1393 1392 1392 1392 1393 1393 1394 1395 1396 1397 1397
1454 1451 1448 1445 1443 1440 1437 1434 1432 1429 1426 1423 1420 1417 1415 1412 1410 1408 1406 1405 1403 1401 1398 1396 1395 1393 1392 1391 1390 1389 1388 1388 1387 1387 1386 1386 1387 1387 1388 1389 1389 1390 1391
1451 1447 1444 1442 1439 1435 1433 1431 1428 1425 1423 1420 1418 1415 1412 1408 1407 1406 1404 1401 1399 1396 1394 1392 1390 1388 1387 1386 1385 1384 1384 1383 1382 1382 1382 1381 1381 1382 1382 1383 1383 1384 1385
1447 1444 1441 1438 1435 1432 1429 1426 1424 1422 1419 1416 1414 1412 1408 1406 1404 1401 1399 1397 1395 1393 1390 1388 1386 1384 1383 1382 1381 1380 1379 1378 1377 1377 1377 1377 1377 1377 1377 1377 1378 1378 1378
1444 1440 1437 1434 1431 1429 1426 1422 1418 1416 1415 1412 1409 1407 1404 1402 1399 1397 1395 1393 1391 1389 1386 1384 1382 1381 1380 1378 1377 1376 1375 1374 1374 1373 1373 1372 1372 1372 1372 1372 1372 1373 1373
1440 1437 1434 1431 1429 1426 1423 1420 1416 1413 1409 1406 1405 1402 1400 1397 1395 1393 1391 1389 1386 1384 1382 1381 1379 1378 1376 1375 1373 1372 1371 1370 1370 1369 1369 1369 1368 1368 1367 1367 1367 1367 1368
1437 1434 1431 1429 1426 1423 1420 1417 1414 1411 1407 1404 1400 1398 1396 1393 1391 1389 1387 1385 1383 1381 1379 1377 1376 1374 1373 1371 1370 1369 1368 1367 1366 1365 1365 1364 1364 1363 1362 1362 1362 1362 1363
1434 1432 1429 1426 1423 1421 1418 1415 1412 1408 1405 1402 1398 1396 1393 1390 1387 1385 1384 1382 1380 1378 1376 1374 1372 1371 1369 1368 1367 1365 1364 1363 1362 1361 1361 1360 1359 1358 1358 1357 1357 1357 1358
1432 1429 1427 1424 1421 1418 1415 1412 1410 1406 1403 1400 1396 1394 1391 1388 1385 1382 1380 1379 1377 1375 1372 1371 1369 1367 1366 1364 1363 1362 1361 1359 1359 1357 1356 1355 1354 1354 1353 1353 1353 1353 1354
1430 1427 1424 1421 1418 1416 1413 1410 1407 1404 1400 1397 1393 1391 1388 1385 1383 1380 1378 1376 1374 1372 1370 1368 1366 1364 1363 1362 1360 1359 1357 1356 1355 1354 1352 1351 1350 1350 1349 1349 1349 1349 1350
1427 1425 1422 1419 1416 1413 1410 1407 1404 1401 1398 1395 1391 1388 1385 1383 1380 1378 1376 1373 1371 1369 1367 1365 1363 1361 1360 1358 1357 1356 1354 1352 1351 1350 1349 1348 1347 1346 1346 1345 1345 1346 1346
1425 1422 1419 1416 1413 1410 1407 1404 1401 1399 1396 1392 1389 1386 1383 1381 1378 1376 1373 1371 1368 1366 1364 1361 1359 1358 1356 1355 1353 1352 1350 1349 1348 1347 1346 1344 1343 1343 1342 1342 1342 1342 1343
1422 1419 1416 1413 1410 1407 1404 1402 1399 1396 1393 1390 1387 1384 1382 1379 1376 1373 1370 1368 1365 1363 1361 1358 1356 1355 1353 1351 1350 1348 1347 1345 1344 1343 1342 1341 1340 1339 1339 1339 1339 1339 1340
1419 1416 1413 1410 1407 1405 1402 1399 1396 1393 1390 1387 1384 1382 1379 1375 1373 1370 1367 1365 1362 1360 1357 1355 1353 1351 1350 1348 1346 1344 1343 1341 1340 1340 1339 1338 1337 1337 1337 1337 1337 1337 1337